This is the latest recevied weather packets stored in our database for station/object IZ1MEU-13. If no packets are shown the sender has not sent any weather packets the latest 10 day(s).
| Time | Temp. | Humidity | Pressure | Rain* | Wind** | Luminosity | Snow |
|---|---|---|---|---|---|---|---|
| 1777472009 | 21.11° C | 41% | 1018.8 hPa | - | - | - | - |
| 1777470806 | 20.56° C | 41% | 1019 hPa | - | - | - | - |
| 1777469603 | 20.56° C | 42% | 1019.2 hPa | - | - | - | - |
| 1777468399 | 20° C | 42% | 1019.4 hPa | - | - | - | - |
| 1777467196 | 20.56° C | 44% | 1019.5 hPa | - | - | - | - |
| 1777465992 | 19.44° C | 46% | 1019.6 hPa | - | - | - | - |
| 1777464789 | 18.89° C | 46% | 1019.7 hPa | - | - | - | - |
| 1777463585 | 19.44° C | 49% | 1019.7 hPa | - | - | - | - |
| 1777462382 | 18.33° C | 50% | 1019.9 hPa | - | - | - | - |
| 1777461178 | 18.33° C | 50% | 1020 hPa | - | - | - | - |
| 1777459975 | 17.22° C | 51% | 1020.1 hPa | - | - | - | - |
| 1777458771 | 18.33° C | 51% | 1020.1 hPa | - | - | - | - |
| 1777457568 | 17.22° C | 52% | 1020.3 hPa | - | - | - | - |
| 1777456365 | 16.67° C | 55% | 1020.4 hPa | - | - | - | - |
| 1777455161 | 16.67° C | 55% | 1020.3 hPa | - | - | - | - |
| 1777453958 | 16.67° C | 55% | 1020.2 hPa | - | - | - | - |
| 1777452754 | 16.11° C | 55% | 1020.1 hPa | - | - | - | - |
| 1777451551 | 16.11° C | 57% | 1020.1 hPa | - | - | - | - |
| 1777450347 | 15° C | 59% | 1020.1 hPa | - | - | - | - |
| 1777449144 | 13.89° C | 62% | 1020.1 hPa | - | - | - | - |
| 1777447940 | 13.89° C | 62% | 1019.8 hPa | - | - | - | - |
| 1777446737 | 13.33° C | 62% | 1019.9 hPa | - | - | - | - |
| 1777445533 | 13.33° C | 62% | 1019.7 hPa | - | - | - | - |
| 1777444330 | 13.33° C | 62% | 1019.5 hPa | - | - | - | - |
| 1777443127 | 13.33° C | 61% | 1019.3 hPa | - | - | - | - |
* Rain since midnight (hover to see other rain measurements)
** Current wind speed in m/s (hover to see current wind gust speed)